Location: M?digepalle
(16.1753°N, 80.3496°E)
Time: 07:48:58
(UTC+00:00)

FENGYUN 3A - Pass Details

Date: 29 October 2020
Orbit: 824 x 836 km, 98.4° (Epoch: 27 November)

Event Time Altitude Azimuth Distance (km) Brightness Sun altitude
Rises 22:49:57 0° 14° (NNE) 3,376 6.9 -25.6°
Reaches altitude 10° 22:52:19 10° 16° (NNE) 2,441 6.2 -25.0°
Maximum altitude 22:57:44 76° 102° (ESE) 859 3.8 -23.8°
Drops below altitude 10° 23:03:07 10° 188° (S) 2,432 6.1 -22.5°
Sets 23:05:28 0° 189° (S) 3,363 6.8 -21.9°
